Date,TemperatureHighF,TemperatureAvgF,TemperatureLowF,DewpointHighF,DewpointAvgF,DewpointLowF,HumidityHigh,HumidityAvg,HumidityLow,PressureMaxIn,PressureMinIn,WindSpeedMaxMPH,WindSpeedAvgMPH,GustSpeedMaxMPH,PrecipitationSumIn
2013-1-1,60,51,41,60,47,38,99,88,66,30.33,30.06,14,5,17,0.11
2013-1-2,45,40,37,38,31,27,86,69,52,30.41,30.31,11,2,15,0.00
2013-1-3,47,41,37,32,30,28,80,66,53,30.54,30.38,11,1,15,0.00
2013-1-4,43,40,37,39,36,32,95,87,65,30.59,30.47,12,1,14,0.19
2013-1-5,61,45,37,45,40,34,97,83,54,30.48,30.32,8,0,8,0.00
2013-1-6,62,46,35,38,32,24,97,64,25,30.49,30.37,13,0,14,0.00
2013-1-7,57,46,34,45,35,27,84,67,50,30.42,30.15,4,0,11,0.00
2013-1-8,56,51,47,56,51,45,99,98,84,30.15,29.93,1,0,9,0.69
2013-1-9,66,58,49,58,55,48,99,92,75,30.13,29.97,6,0,8,1.62
2013-1-10,69,54,44,50,45,42,99,75,40,30.16,30.09,1,0,4,0.01
2013-1-11,70,59,44,66,55,42,96,86,67,30.14,29.93,4,0,6,0.00
2013-1-12,74,68,52,67,63,40,97,84,57,29.96,29.78,7,0,16,0.00
2013-1-13,57,47,39,40,32,28,65,55,35,30.26,29.96,11,0,16,0.00
2013-1-14,54,44,35,34,29,21,67,55,45,30.32,30.19,0,0,0,0.00
2013-1-15,49,45,34,34,32,23,78,60,54,30.21,29.90,8,0,11,0.04
2013-1-16,57,41,31,24,19,14,62,43,20,30.15,29.99,1,0,8,0.00
2013-1-17,69,52,37,36,31,22,73,47,24,30.29,30.11,0,0,2,0.00
2013-1-18,44,42,37,34,34,30,78,72,66,30.30,30.27,0,0,0,0.00
2013-1-19,72,53,43,48,40,34,83,64,34,30.30,29.97,0,0,0,0.00
2013-1-20,73,56,41,56,47,40,99,76,40,30.07,29.92,0,0,0,0.00
2013-1-21,76,58,44,56,49,43,99,76,40,30.05,29.94,0,0,0,0.00
2013-1-22,56,56,56,49,49,49,78,78,78,30.00,30.00,0,0,0,0.00
2013-1-23,56,56,56,49,49,49,78,78,78,30.00,30.00,0,0,0,0.00
2013-1-24,56,56,56,49,49,49,78,78,78,30.00,30.00,0,0,0,0.00
2013-1-25,81,61,56,62,53,49,91,76,51,30.00,29.86,0,0,1,0.00
2013-1-26,74,62,55,62,57,54,98,85,61,29.98,29.85,0,0,3,0.00
2013-1-27,78,68,58,65,59,53,98,77,52,29.91,29.77,1,0,11,0.19
2013-1-28,73,73,73,58,58,58,60,60,60,29.82,29.82,0,0,0,0.19
2013-1-29,73,73,73,58,58,58,60,60,60,29.82,29.82,0,0,0,0.19
2013-1-30,73,73,73,58,58,58,60,60,60,29.82,29.82,0,0,0,0.19
2013-2-3,73,71,70,56,54,50,58,54,47,30.14,29.84,0,0,0,0.00
2013-2-4,73,72,70,58,55,52,61,56,50,29.84,29.63,0,0,0,0.00
2013-2-5,74,72,70,59,54,50,60,54,46,29.81,29.69,0,0,0,0.00
2013-2-6,73,71,62,59,56,51,87,60,49,29.82,29.66,0,0,0,0.04
2013-2-7,82,67,58,63,57,40,99,73,36,29.88,29.69,0,0,0,0.01
2013-2-8,75,60,47,48,37,24,78,46,16,30.03,29.88,0,0,0,0.00
2013-2-9,68,59,49,67,56,36,99,91,53,29.90,29.61,0,0,0,0.04
2013-2-10,71,65,58,67,44,23,99,54,17,29.83,29.59,0,0,0,0.05
2013-2-11,63,56,50,51,45,39,99,69,48,29.86,29.77,0,0,0,0.00
2013-2-12,77,60,50,57,44,21,99,64,17,29.87,29.63,0,0,0,0.01
2013-2-13,74,53,40,37,31,20,75,48,14,29.96,29.83,5,0,21,0.27
2013-2-14,74,53,36,41,36,30,89,57,24,29.94,29.81,11,2,12,0.00
2013-2-15,73,53,40,45,38,22,93,60,23,30.18,29.89,17,5,17,0.00
2013-2-16,71,51,34,29,24,20,61,37,16,30.27,30.04,8,3,13,0.00
2013-2-17,73,56,40,53,39,28,74,54,31,30.03,29.81,17,6,21,0.00
2013-2-18,67,65,61,61,59,53,87,81,74,29.81,29.72,17,5,21,0.00
2013-2-19,71,64,50,61,40,21,80,46,16,30.06,29.78,16,6,17,0.00
2013-2-20,68,60,53,66,52,25,97,78,28,29.93,29.48,14,6,19,0.00
2013-2-21,81,70,54,66,42,19,92,48,12,29.67,29.40,15,6,23,0.00
2013-2-22,70,56,48,41,34,19,68,44,23,29.83,29.67,15,6,19,0.00
2013-2-23,79,61,42,42,35,29,64,40,23,29.86,29.69,9,4,12,0.00
2013-2-24,75,75,75,37,37,37,25,25,25,29.69,29.69,4,4,10,0.00
2013-2-25,75,70,47,37,36,29,50,29,25,29.69,29.65,17,5,20,4.46
2013-2-26,69,54,40,29,25,21,61,36,17,29.77,29.66,13,5,16,0.00
2013-2-27,54,54,54,23,23,23,29,29,29,29.70,29.70,2,2,2,0.00
2013-2-28,54,53,41,26,23,23,55,31,29,30.06,29.70,2,2,2,0.02
2013-3-1,74,54,35,32,22,16,65,34,13,30.10,29.92,11,3,17,0.00
2013-3-2,70,52,39,31,26,21,58,39,18,30.24,30.07,14,4,22,0.00
2013-3-3,79,58,36,44,32,25,65,41,15,30.08,29.78,15,5,18,0.00
2013-3-4,90,67,46,54,46,37,94,54,16,29.78,29.55,12,4,14,0.00
2013-3-5,69,58,46,56,29,12,95,40,15,30.17,29.61,29,9,30,0.58
2013-3-6,68,51,38,28,18,9,44,27,15,30.24,30.03,12,4,14,0.00
2013-3-7,75,58,39,56,46,29,86,66,44,30.03,29.90,11,4,17,0.00
2013-3-31,70,65,62,62,60,59,91,85,74,30.24,30.11,11,3,18,0.05
2013-4-1,89,73,61,67,62,59,97,72,38,30.32,30.16,10,4,17,0.00
2013-4-2,80,70,57,67,64,56,99,82,61,30.31,30.08,20,5,29,1.06
2013-4-3,57,54,49,57,52,45,99,92,83,30.39,30.06,20,7,21,0.48
2013-4-4,71,59,46,46,45,42,92,62,39,30.47,30.34,12,6,17,0.00
2013-4-5,78,64,40,51,47,40,99,58,35,30.52,30.33,8,3,10,0.00
2013-4-6,82,65,51,58,55,48,95,73,42,30.33,30.12,17,6,18,0.00
2013-4-7,87,71,61,66,62,58,91,75,44,30.20,30.03,14,6,16,0.00
2013-4-8,77,70,66,67,65,62,94,84,73,30.11,29.95,12,6,17,0.00
2013-4-9,91,76,70,70,67,65,90,76,46,30.00,29.85,14,6,16,0.00
2013-4-10,74,61,47,69,54,43,95,78,59,30.18,29.92,17,9,24,0.24
2013-4-11,75,58,45,44,40,32,92,56,28,30.23,30.06,14,5,17,0.02
2013-4-12,85,63,44,51,44,38,92,57,21,30.26,30.11,11,3,11,0.00
2013-4-13,80,66,50,60,53,41,97,64,37,30.24,30.04,11,4,11,0.00
2013-4-14,92,72,57,67,62,56,98,73,37,30.11,29.90,11,4,14,0.00
2013-4-15,93,78,68,67,65,61,93,68,37,30.09,29.97,14,5,17,0.00
2013-4-16,87,76,64,70,67,63,95,74,51,30.16,30.07,13,5,14,0.00
2013-4-17,81,75,72,72,71,69,97,86,68,30.16,29.94,12,6,15,0.01
2013-4-18,75,65,54,71,54,36,93,70,36,30.33,29.93,16,8,22,0.37
2013-4-19,75,58,45,36,29,20,67,38,14,30.55,30.33,18,6,24,0.06
2013-4-20,78,59,38,48,34,26,82,45,15,30.48,30.25,12,4,15,0.00
2013-4-21,86,67,50,59,53,47,89,64,36,30.40,30.26,12,5,18,0.00
2013-4-22,87,72,59,62,60,57,96,69,39,30.38,30.14,13,5,14,0.00
2013-4-23,80,70,55,67,62,44,90,76,59,30.33,30.13,17,6,17,0.00
2013-4-24,55,49,46,43,41,37,79,73,64,30.42,30.33,23,13,24,0.00
2013-4-25,70,62,56,51,44,40,68,53,40,30.57,30.44,12,5,12,0.00
2013-4-26,81,69,59,69,64,51,99,83,65,30.46,30.30,10,4,10,0.02
2013-4-27,84,73,66,69,67,65,99,83,55,30.36,30.20,12,3,14,1.09
2013-4-28,86,73,59,68,63,59,99,74,46,30.30,30.14,8,3,11,0.01
2013-4-29,88,72,66,69,66,62,97,83,42,30.21,30.04,14,4,16,0.21
2013-4-30,86,74,65,69,66,64,99,78,48,30.12,30.00,8,3,10,0.00
2013-5-1,90,78,66,69,67,65,96,72,47,30.19,30.06,10,4,14,0.00
2013-5-2,76,58,50,69,50,37,94,75,59,30.60,30.14,22,11,24,0.60
2013-5-3,73,57,46,38,31,22,69,42,15,30.60,30.35,21,6,22,0.00
2013-5-4,85,64,44,43,36,30,73,42,15,30.37,30.16,14,4,14,0.00
2013-5-5,85,67,49,48,43,37,70,45,20,30.40,30.25,10,3,13,0.00
2013-5-6,78,65,48,54,49,45,87,60,37,30.42,30.27,8,2,10,0.00
2013-5-7,87,70,51,61,54,49,97,61,29,30.35,30.21,12,3,12,0.00
2013-5-8,86,73,63,66,63,58,93,73,46,30.29,30.15,12,5,14,0.00
2013-5-9,83,74,63,72,68,58,93,82,68,30.25,30.11,13,5,21,0.05
2013-5-10,86,72,61,67,63,59,98,77,45,30.28,30.10,13,5,22,0.19
2013-5-11,83,72,63,61,58,52,89,64,40,30.42,30.27,15,7,19,0.00
2013-5-12,82,70,60,55,51,47,73,52,31,30.51,30.38,11,4,18,0.00
2013-5-13,87,72,52,60,53,46,83,54,30,30.54,30.42,10,3,11,0.00
2013-5-14,87,74,59,67,62,54,90,67,46,30.49,30.28,14,5,20,0.00
2013-5-15,89,76,70,71,69,66,93,79,53,30.37,30.11,16,7,19,0.01
2013-5-16,98,80,71,74,70,67,93,74,40,30.14,29.99,14,6,17,0.00
2013-5-17,99,83,74,74,72,69,91,72,39,30.18,30.07,12,5,14,0.00
2013-5-18,96,82,71,72,69,65,94,68,41,30.20,30.10,16,6,21,0.00
2013-5-19,93,82,72,72,70,66,91,69,48,30.14,30.00,13,6,18,0.00
2013-5-20,94,81,72,72,70,68,93,71,46,30.12,29.98,12,6,17,0.00
2013-5-21,76,74,73,71,71,70,93,90,84,30.10,30.03,5,3,9,0.00
2013-5-22,94,80,63,72,64,56,78,60,46,30.20,30.08,11,4,11,0.00
2013-5-23,94,82,74,72,71,69,92,72,46,30.30,30.14,14,5,14,0.00
2013-5-24,81,78,74,73,70,68,92,79,69,30.38,30.28,6,1,6,0.14
2013-5-25,82,79,76,72,70,68,78,74,70,30.42,30.29,0,0,0,0.00
2013-5-26,83,80,77,74,70,69,75,74,72,30.36,30.25,0,0,0,0.00
2013-5-27,87,80,77,75,71,68,75,72,67,30.32,30.14,0,0,0,0.00
2013-5-28,86,81,76,74,71,69,85,72,65,30.20,30.05,13,1,15,0.07
2013-5-29,87,78,73,73,72,70,93,81,63,30.17,30.00,17,8,19,0.00
2013-5-30,92,81,74,74,72,71,91,76,52,30.13,30.04,13,6,14,0.00
2013-5-31,95,82,74,75,73,71,93,76,47,30.17,30.04,14,6,14,0.00
2013-6-1,98,84,76,74,73,71,90,70,43,30.18,30.07,14,6,17,0.00
2013-6-2,90,78,65,74,66,60,99,72,36,30.33,30.18,14,4,20,0.31
2013-6-3,95,80,63,72,66,61,96,66,36,30.26,30.12,8,2,10,0.00
2013-6-4,94,82,69,73,68,64,98,67,37,30.20,30.10,11,4,12,0.00
2013-6-5,95,82,68,72,69,66,97,68,40,30.17,30.03,11,4,13,0.00
2013-6-6,98,82,69,75,69,65,98,68,36,30.21,30.06,12,3,16,0.00
2013-6-7,82,74,68,69,66,63,93,75,61,30.28,30.16,13,4,14,0.00
2013-6-8,92,78,62,72,67,58,95,70,48,30.20,30.08,10,3,14,0.01
2013-6-9,92,81,74,76,72,66,95,77,51,30.24,30.12,8,3,11,0.06
2013-6-10,96,83,69,75,71,68,96,71,43,30.27,30.19,8,2,9,0.05
2013-6-11,95,80,72,75,72,67,96,80,45,30.33,30.25,12,3,27,0.26
2013-6-12,94,79,72,75,73,70,99,84,49,30.33,30.24,11,3,20,0.22
2013-6-13,92,78,74,80,74,69,97,87,57,30.35,30.22,9,2,21,0.17
2013-6-14,81,76,73,77,74,71,97,93,83,30.28,30.21,6,1,9,0.00
2013-6-15,94,84,75,77,73,70,97,73,46,30.28,30.18,8,2,9,0.01
2013-6-16,97,84,75,75,73,68,95,72,39,30.31,30.19,13,4,13,0.00
2013-6-17,86,78,76,77,74,73,92,88,74,30.26,30.21,10,4,10,0.00
2013-6-20,96,84,74,74,71,65,93,67,43,30.34,30.23,16,6,16,0.00
2013-6-21,97,85,76,75,70,61,94,65,35,30.36,30.26,16,6,16,0.00
2013-6-22,98,85,75,74,70,65,95,65,37,30.32,30.18,11,6,11,0.00
2013-6-23,97,84,76,74,70,62,93,66,35,30.27,30.18,11,6,11,0.00
2013-6-24,98,85,76,74,71,67,92,67,40,30.31,30.19,16,7,16,0.00
2013-6-25,98,86,76,74,71,66,90,64,35,30.29,30.16,13,7,13,0.00
2013-6-26,101,88,76,74,71,67,91,62,35,30.26,30.16,12,6,14,0.00
2013-6-27,103,87,75,74,69,48,90,59,17,30.31,30.20,11,4,12,0.00
2013-6-28,105,89,75,74,69,63,94,58,27,30.29,30.11,9,3,13,0.00
2013-6-29,107,93,76,73,66,44,82,46,12,30.18,30.03,10,3,14,0.00
2013-6-30,91,80,69,74,68,62,98,68,44,30.29,30.09,20,4,20,0.61
2013-7-1,92,80,71,68,60,54,75,51,32,30.29,30.15,13,4,14,0.00
2013-7-2,94,80,66,63,56,48,71,46,24,30.36,30.24,11,3,14,0.00
2013-7-3,98,82,67,65,51,37,67,38,12,30.31,30.18,7,2,13,0.00
2013-7-4,99,84,65,71,63,54,96,55,23,30.28,30.16,7,2,11,0.00
2013-7-5,100,85,69,73,66,58,94,56,29,30.27,30.12,11,3,14,0.00
2013-7-6,98,84,70,74,68,60,94,63,32,30.22,30.10,12,3,14,0.00
2013-7-7,100,83,73,76,72,67,97,73,39,30.26,30.17,12,3,18,0.00
2013-7-8,90,80,74,75,74,69,95,83,53,30.40,30.25,9,3,13,0.00
2013-7-9,99,84,73,76,72,67,99,72,36,30.42,30.30,11,4,14,0.01
2013-7-10,101,88,74,75,71,66,98,60,34,30.39,30.22,10,4,13,0.00
2013-7-11,100,86,75,75,70,63,94,64,31,30.30,30.17,10,4,14,0.00
2013-7-12,102,87,74,75,70,60,95,61,27,30.26,30.17,9,4,11,0.00
2013-7-13,103,89,72,73,66,45,89,51,14,30.27,30.14,8,3,11,0.00
2013-7-14,101,84,75,73,69,64,87,62,33,30.20,30.13,12,5,21,0.00
2013-7-15,85,76,71,75,73,70,98,91,67,30.30,30.15,8,3,10,0.90
2013-7-16,89,75,71,76,73,70,99,92,63,30.39,30.27,8,3,22,0.93
2013-7-17,89,77,71,74,72,69,99,85,53,30.44,30.37,12,4,21,0.00
2013-7-18,94,80,71,74,71,67,97,75,44,30.43,30.29,10,3,10,0.00
2013-7-19,97,84,71,78,71,67,99,69,40,30.35,30.19,6,2,6,0.00
2013-7-20,96,84,72,76,71,65,97,67,37,30.29,30.14,8,3,8,0.00
2013-7-21,96,85,76,77,74,70,95,71,44,30.25,30.16,8,4,8,0.01
2013-7-22,97,87,78,76,73,68,93,66,39,30.28,30.17,11,6,15,0.00
2013-7-23,99,86,78,76,72,64,88,65,33,30.30,30.16,14,7,15,0.00
2013-7-24,102,87,76,76,72,67,93,66,36,30.29,30.15,12,4,13,0.00
2013-7-25,101,87,74,75,72,65,96,64,33,30.32,30.23,10,4,17,0.00
2013-7-26,96,82,75,76,74,71,96,78,48,30.32,30.26,8,3,11,0.00
2013-7-27,93,83,75,78,74,70,98,75,50,30.28,30.15,10,4,10,0.14
2013-7-28,98,85,74,76,72,68,88,67,39,30.23,30.13,11,4,11,0.00
2013-7-29,100,87,78,76,71,64,89,64,32,30.32,30.21,12,7,12,0.00
2013-7-30,101,87,77,75,71,66,89,64,32,30.37,30.25,14,7,14,0.00
2013-7-31,106,88,74,74,67,48,95,59,15,30.38,30.21,8,4,8,0.00
2013-8-1,103,90,76,76,70,65,94,57,32,30.32,30.18,11,4,11,0.00
2013-8-2,102,88,75,75,69,65,90,57,33,30.28,30.15,10,4,11,0.00
2013-8-3,101,88,76,75,71,66,93,61,34,30.31,30.20,11,5,14,0.00
2013-8-4,100,88,78,76,72,69,91,63,37,30.34,30.20,11,6,11,0.00
2013-8-5,102,90,76,76,70,65,93,57,32,30.32,30.15,11,6,18,0.00
2013-8-6,103,89,76,76,71,63,94,60,28,30.25,30.09,14,6,14,0.00
2013-8-7,104,89,77,76,71,59,91,61,24,30.23,30.08,14,5,14,0.00
2013-8-8,103,86,77,74,73,70,87,67,35,30.20,30.11,9,5,12,0.00
2013-8-9,103,88,74,74,68,46,95,58,15,30.25,30.14,8,3,8,0.00
2013-8-10,103,87,74,77,72,69,89,65,35,30.34,30.20,11,3,11,0.11
2013-8-11,101,86,75,79,73,68,97,69,36,30.36,30.24,9,3,9,0.00
2013-8-12,98,86,74,74,71,66,96,64,36,30.36,30.22,11,4,11,0.00
2013-8-13,102,88,76,75,71,65,93,61,33,30.33,30.17,11,4,11,0.00
2013-8-14,105,88,76,75,70,57,92,58,21,30.29,30.14,13,5,13,0.00
2013-8-15,88,79,75,76,71,70,89,77,62,30.28,30.22,5,2,8,0.00
2013-8-20,96,82,69,74,68,62,96,66,34,30.30,30.22,10,3,10,0.00
2013-8-21,98,82,73,74,71,67,92,71,38,30.35,30.25,10,3,10,0.00
2013-8-22,98,85,72,76,71,65,97,67,37,30.36,30.19,10,3,10,0.00
2013-8-23,100,87,73,76,70,64,96,60,33,30.31,30.17,8,3,8,0.00
2013-8-24,101,88,74,73,70,64,87,58,32,30.33,30.19,11,3,11,0.00
2013-8-25,98,85,72,73,70,65,86,62,36,30.36,30.26,14,5,14,0.00
2013-8-26,92,78,73,75,73,69,99,85,48,30.39,30.30,13,4,13,0.07
2013-8-27,93,80,73,75,72,69,98,79,48,30.39,30.30,11,4,14,0.01
2013-8-28,98,84,73,79,71,65,99,69,37,30.40,30.27,14,3,14,0.00
2013-8-29,80,76,73,74,72,71,97,90,74,30.35,30.31,4,1,4,0.00
2013-8-30,103,89,76,73,69,65,85,54,33,30.32,30.16,10,3,10,0.00
2013-8-31,102,88,74,73,70,66,89,57,34,30.24,30.10,9,4,9,0.00
2013-9-1,101,87,73,76,70,64,96,60,32,30.21,30.09,10,3,10,0.00
2013-9-2,100,84,76,77,71,64,95,67,32,30.26,30.10,6,3,12,0.00
2013-9-3,102,88,71,73,68,61,89,55,28,30.29,30.15,5,2,12,0.00
2013-9-4,101,87,78,72,70,66,80,59,35,30.33,30.21,8,2,14,0.00
2013-9-5,99,84,71,76,71,68,93,68,37,30.38,30.26,6,1,25,0.00
2013-9-6,98,85,72,76,71,66,95,66,36,30.37,30.22,5,1,17,0.00
2013-9-7,98,84,74,76,72,68,95,70,38,30.31,30.18,6,1,14,0.00
2013-9-8,93,80,73,76,73,68,99,81,48,30.26,30.17,10,1,14,0.20
2013-9-9,95,78,71,75,71,68,99,83,43,30.26,30.17,7,2,19,0.09
2013-9-10,93,78,72,75,72,70,99,84,48,30.32,30.22,8,2,14,0.06
2013-9-11,96,81,72,77,71,63,99,76,37,30.37,30.25,8,2,14,0.11
2013-9-12,96,81,70,75,69,62,97,71,33,30.34,30.18,5,1,13,0.00
2013-9-13,98,85,72,73,66,58,92,57,27,30.25,30.09,8,2,14,0.00
2013-9-14,97,82,68,74,68,65,96,65,35,30.22,30.12,5,2,18,0.22
2013-9-15,95,81,71,76,72,69,98,76,45,30.29,30.17,7,2,13,0.00
2013-9-16,86,76,72,77,73,69,99,89,65,30.32,30.23,9,2,17,0.40
2013-9-17,90,78,72,77,73,70,99,85,52,30.33,30.21,8,1,21,0.11
2013-9-18,93,80,72,77,73,69,99,82,47,30.30,30.17,7,1,14,0.11
2013-9-19,93,80,74,77,74,72,99,83,51,30.22,30.09,5,2,11,0.05
2013-9-20,83,76,71,78,74,69,99,94,84,30.14,30.04,8,2,21,0.52
2013-9-21,86,75,69,69,62,51,94,67,35,30.19,30.09,11,4,18,0.00
2013-9-22,88,73,62,56,51,44,69,47,24,30.18,30.05,5,2,13,0.00
2013-9-23,92,74,56,60,53,46,87,54,22,30.12,30.03,4,1,9,0.00
2013-9-24,98,80,64,66,60,56,80,54,27,30.21,30.09,6,1,19,0.00
2013-9-25,98,82,67,67,62,58,84,53,32,30.18,30.06,4,1,10,0.00
2013-9-26,93,81,70,74,68,57,97,67,40,30.18,30.08,6,3,15,0.00
2013-9-27,92,81,75,79,75,72,96,81,55,30.19,30.09,10,3,15,0.01
2013-9-28,92,81,76,77,76,72,96,84,55,30.25,30.14,8,3,15,0.09
2013-9-29,80,72,66,75,68,66,99,89,68,30.31,30.21,8,2,20,2.56
2013-9-30,89,71,60,70,63,58,99,82,36,30.22,30.15,3,0,8,0.00
2013-10-10,88,74,61,69,64,60,98,74,45,30.29,30.14,7,2,11,0.00
2013-10-11,92,79,71,75,72,67,95,80,51,30.20,30.09,8,3,10,0.00
2013-10-12,93,82,76,76,74,70,95,79,48,30.27,30.14,5,2,8,0.01
2013-10-13,78,73,66,75,71,65,99,96,93,30.43,30.25,8,2,9,0.84
2013-10-14,86,77,72,75,72,70,97,85,60,30.33,30.18,5,2,9,0.01
2013-10-15,86,76,64,72,70,60,95,80,54,30.25,30.14,11,2,14,0.00
2013-10-16,64,59,54,60,57,54,99,94,87,30.33,30.18,7,3,12,0.63
2013-10-17,61,56,53,59,54,49,96,90,74,30.35,30.30,4,1,10,0.00
2013-10-18,74,66,56,66,62,53,99,88,73,30.25,30.14,4,1,8,0.00
2013-10-19,71,59,48,65,46,37,99,67,30,30.44,30.22,9,3,21,0.01
2013-10-20,78,59,44,54,47,42,97,68,33,30.34,30.18,6,1,11,0.00
2013-10-21,83,70,59,69,63,55,98,80,58,30.31,30.16,8,1,14,0.00
2013-10-22,78,64,52,56,46,33,86,58,21,30.42,30.30,9,3,16,0.00
2013-10-23,84,66,50,48,44,37,79,50,20,30.44,30.35,4,1,11,0.00
2013-10-24,84,67,53,54,50,45,83,58,28,30.49,30.36,4,1,11,0.00
2013-10-25,82,67,53,64,58,52,99,76,46,30.56,30.45,7,1,13,0.00
2013-10-26,83,71,64,67,64,62,99,80,50,30.48,30.33,8,2,14,0.00
2013-10-27,84,71,64,70,66,63,99,86,60,30.36,30.26,5,2,11,0.00
2013-10-28,85,75,67,70,67,65,99,80,54,30.34,30.24,8,3,14,0.00
2013-10-29,87,76,71,72,69,67,96,80,54,30.35,30.23,8,3,17,0.00
2013-10-30,84,77,73,75,74,70,99,88,71,30.26,30.05,6,3,13,0.44
2013-10-31,86,73,54,74,58,38,99,68,20,30.15,30.03,5,2,18,0.11
2013-11-1,88,68,50,61,47,34,86,51,18,30.33,30.11,9,2,16,0.00
2013-11-2,76,63,48,45,39,30,75,45,20,30.56,30.32,8,3,17,0.00
2013-11-3,75,59,43,55,41,31,86,58,21,30.45,30.29,6,2,11,0.00
2013-11-4,71,64,59,65,59,55,99,84,68,30.32,30.22,5,1,8,0.02
2013-11-5,80,72,64,70,67,63,99,87,63,30.27,30.16,5,2,12,0.00
2013-11-6,82,66,55,72,59,42,98,79,61,30.56,30.21,11,3,20,0.32
2013-11-7,64,55,47,42,38,28,69,54,26,30.69,30.54,11,4,17,0.00
2013-11-8,66,57,49,50,42,32,78,58,31,30.61,30.42,6,1,11,0.00
2013-11-9,72,62,54,60,55,46,96,78,59,30.44,30.36,5,1,8,0.13
2013-11-10,68,63,61,60,58,56,94,85,71,30.55,30.40,5,1,8,0.00
2013-11-11,82,65,55,58,55,52,98,73,41,30.52,30.41,3,0,6,0.00
2013-11-12,66,56,44,56,48,25,90,74,46,30.85,30.48,11,4,23,0.04
2013-11-13,61,44,34,30,26,23,74,51,23,30.86,30.62,8,3,14,0.00
2013-11-14,66,48,31,48,34,26,83,61,27,30.62,30.30,5,1,10,0.00
2013-11-15,81,64,49,61,55,48,99,73,43,30.30,30.13,6,1,13,0.00
2013-11-16,74,66,63,67,64,61,99,96,78,30.17,30.13,6,3,14,0.00
2013-11-26,66,54,39,56,43,24,85,69,46,30.85,30.52,11,5,17,0.04
2013-11-27,62,44,32,30,26,22,80,54,23,30.85,30.57,8,2,12,0.00
2013-11-28,65,52,31,50,37,25,84,61,26,30.55,30.26,4,1,7,0.00
2013-11-29,81,66,49,64,57,48,99,75,43,30.27,30.13,6,2,9,0.00
2013-11-30,73,64,52,66,58,48,99,82,63,30.59,30.13,6,2,8,1.35
2013-12-1,72,62,57,61,58,55,97,87,65,30.44,30.24,4,1,8,0.00
2013-12-2,82,69,59,62,57,55,95,71,40,30.21,29.97,5,2,8,0.00
2013-12-3,82,67,58,62,53,45,95,63,34,30.17,29.90,5,1,8,0.00
2013-12-4,77,63,53,67,60,52,99,90,65,30.06,29.93,4,1,8,0.00
2013-12-5,67,49,33,67,44,27,99,83,65,30.29,30.05,14,5,24,0.01
2013-12-6,42,34,29,34,28,22,97,81,65,30.63,30.25,11,5,21,0.06
2013-12-7,33,30,26,26,21,16,89,71,63,30.65,30.50,11,4,19,0.01
2013-12-8,53,39,29,41,34,26,92,81,64,30.49,30.26,4,1,8,0.00
2013-12-9,43,40,34,42,39,31,99,97,87,30.59,30.29,9,4,45,0.05
2013-12-10,50,37,29,31,24,17,90,64,26,30.72,30.56,7,2,19,0.00
2013-12-11,65,45,29,34,29,24,85,57,21,30.76,30.53,4,1,11,0.00
2013-12-12,53,44,35,36,33,28,76,64,48,30.82,30.55,7,2,12,0.00
2013-12-13,50,47,45,50,42,34,99,84,65,30.55,30.14,4,1,9,0.02
2013-12-14,59,50,42,49,40,31,99,72,47,30.57,30.15,12,4,21,0.01
2013-12-15,66,47,34,34,29,25,75,52,23,30.64,30.51,4,1,9,0.00
2013-12-16,70,51,33,33,30,28,84,50,21,30.56,30.44,4,1,11,0.00
2013-12-17,74,53,36,47,38,30,98,62,21,30.58,30.47,6,1,8,0.00
2013-12-18,49,46,44,48,44,37,99,91,76,30.53,30.49,2,1,4,0.00
2013-12-19,60,50,44,50,42,31,99,75,47,30.55,30.18,10,4,16,0.01
2013-12-20,66,48,34,34,29,25,72,51,23,30.66,30.53,4,1,7,0.00
2013-12-21,73,50,33,41,34,26,84,59,23,30.59,29.93,6,1,14,0.46
2013-12-22,62,50,40,44,38,30,88,65,46,30.61,30.11,8,2,15,0.00
2013-12-23,62,44,32,31,26,19,80,55,21,30.78,30.60,4,1,9,0.00
2013-12-24,62,45,29,42,28,20,92,58,21,30.78,30.53,6,1,12,0.00
2013-12-25,58,49,39,49,45,39,99,87,70,30.64,30.48,6,1,12,0.00
2013-12-26,52,48,43,46,40,36,95,77,65,30.68,30.58,6,2,13,0.01
2013-12-27,56,48,43,49,46,43,99,90,65,30.69,30.58,3,1,8,0.28
2013-12-28,60,50,42,49,45,42,99,83,57,30.58,30.30,6,1,8,0.01
2013-12-29,68,50,36,52,44,31,99,82,55,30.51,30.24,10,2,18,0.01
2013-12-30,44,38,35,32,28,23,81,66,52,30.65,30.46,10,3,15,0.00
2013-12-31,56,42,35,32,29,24,83,62,31,30.71,30.51,4,1,8,0.00
2014-1-1,59,49,37,51,41,31,92,74,62,30.50,30.30,7,1,10,0.00
2014-1-2,54,45,32,50,29,22,97,57,29,30.71,30.36,12,4,24,0.14